Flag for Poland Weather past 2 weeks in Jastrzębie Zdrój, Poland

Now
64 °F

Passing clouds.


Feels Like: 64 °F
Forecast: 51 / 68 °F
Wind: 3 mph from South

Location: Ostrava / Mosnov

Current Time: Sep 4, 2015 at 9:20:27 PM

Latest Report: Sep 4, 2015 at 8:00 PM


Visibility: 16 mi

Pressure: 29.95 "Hg

Humidity: 60%

Dew point: 49 °F

Location of Jastrzębie ZdrójLocation

Historic Weather in Jastrzębie Zdrój — Graph

°F

Jastrzębie Zdrój temperature yesterday

Maximum temperature yesterday: 73 °F (at 3:00 PM)
Minimum temperature yesterday: 54 °F (at 6:00 AM)
Average temperature yesterday: 64 °F

Past Weeks' High & Low Weather Summary

 TemperatureHumidityPressure
High93 °F (Aug 31, 2:00 PM)99% (Aug 30, 6:00 AM)30.29 "Hg (Aug 30, 6:00 AM)
Low47 °F (Aug 21, 5:00 AM)25% (Aug 31, 2:00 PM)29.72 "Hg (Sep 1, 6:00 PM)
Average69 °F64%30.03 "Hg
* Reported Aug 20 8:00 PM — Sep 4 8:00 PM, Jastrzębie Zdrój, Weather by CustomWeather, © 2015

Note: Actual official high and low records may vary slightly from our data, if they occured in-between our weather recording intervals... More about our weather records

Advertising

Jastrzębie Zdrój weather history for previous 24 hours

 ConditionsComfort  
Time TempWeatherWind HumidityBarometerVisibility
8:00 PM
Fri, Sep 4
64 °FPassing clouds.3 mph60%29.95 "Hg16 mi
7:00 PM65 °FScattered clouds.3 mph52%29.94 "Hg19 mi
6:00 PM71 °FPassing clouds.3 mph40%29.93 "Hg16 mi
5:00 PM72 °FScattered clouds.N/A38%29.92 "Hg16 mi
4:00 PM70 °FScattered clouds.N/A52%29.94 "Hg16 mi
3:00 PM68 °FPartly sunny.N/A63%29.96 "Hg16 mi
2:00 PM66 °FPartly sunny.N/A69%29.97 "Hg12 mi
1:00 PM64 °FOvercast.5 mph73%29.96 "Hg12 mi
12:00 PM64 °FOvercast.N/A73%29.96 "Hg12 mi
11:00 AM63 °FOvercast.3 mph81%29.96 "Hg9 mi
10:00 AM61 °FOvercast.3 mph86%29.96 "Hg9 mi
9:00 AM60 °FOvercast.3 mph86%29.93 "Hg7 mi
8:00 AM59 °FOvercast.N/A90%29.92 "Hg7 mi
7:00 AM58 °FLight rain. Overcast.2 mph95%29.91 "Hg6 mi
6:00 AM58 °FOvercast.3 mph97%29.89 "Hg5 mi
5:00 AM57 °FRain. Overcast.N/A97%29.89 "Hg4 mi
4:00 AM58 °FRain. Low clouds.N/A95%29.89 "Hg4 mi
3:00 AM59 °FRain. Overcast.5 mph96%29.88 "Hg4 mi
2:00 AM60 °FThundershowers. Overcast.3 mph92%29.88 "Hg4 mi
1:00 AM62 °FOvercast.5 mph83%29.86 "Hg7 mi
12:00 AM62 °FOvercast.3 mph84%29.88 "Hg7 mi
10:00 PM
Thu, Sep 3
64 °FOvercast.3 mph74%29.89 "Hg12 mi
9:00 PM65 °FOvercast.2 mph70%29.90 "Hg12 mi
Weather by CustomWeather, © 2015

See weather overviewHow to use our weather pages